Location: Cisewo
(53.3833°N, 14.9000°E)
Time: 13:37:26
(UTC+00:00)

Cosmos 2266 Rocket - Pass Details

Date: 18 April 2021
Orbit: 934 x 1008 km, 82.9° (Epoch: 16 May)

Event Time Altitude Azimuth Distance (km) Brightness Sun altitude
Rises 19:56:04 0° 349° (N) 3,751 8.0 -14.6°
Reaches altitude 10° 19:58:38 10° 351° (N) 2,793 7.2 -14.9°
Maximum altitude 20:05:04 81° 79° (ENE) 1,015 4.0 -15.6°
Enters shadow 20:09:47 19° 166° (SSE) 2,155 5.3 -16.1°
